This is the latest recevied weather packets stored in our database for station/object R2AKT-13. If no packets are shown the sender has not sent any weather packets the latest 10 day(s).
| Time | Temp. | Humidity | Pressure | Rain* | Wind** | Luminosity | Snow |
|---|---|---|---|---|---|---|---|
| 1777797129 | 16.67° C | 46% | 989 hPa | - | 1.34 m/s, 243° | - | - |
| 1777796549 | 16.11° C | 47% | 989.1 hPa | - | 0.89 m/s, 213° | - | - |
| 1777796068 | 16.67° C | 47% | 989.2 hPa | - | 0.89 m/s, 157° | - | - |
| 1777795549 | 15.56° C | 48% | 989.1 hPa | - | 1.79 m/s, 216° | - | - |
| 1777795039 | 15.56° C | 48% | 989.2 hPa | - | 3.13 m/s, 190° | - | - |
| 1777794559 | 15.56° C | 48% | 989.2 hPa | - | 2.24 m/s, 181° | - | - |
| 1777794044 | 15° C | 49% | 989.1 hPa | - | 3.58 m/s, 181° | - | - |
| 1777793504 | 15.56° C | 48% | 988.8 hPa | - | 2.24 m/s, 197° | - | - |
| 1777792994 | 15° C | 50% | 989.2 hPa | - | 0.45 m/s, 207° | - | - |
| 1777792404 | 15° C | 50% | 989.1 hPa | - | 1.34 m/s, 215° | - | - |
| 1777791814 | 14.44° C | 51% | 989.1 hPa | - | 1.79 m/s, 206° | - | - |
| 1777791244 | 14.44° C | 51% | 989.2 hPa | - | 1.79 m/s, 196° | - | - |
| 1777790704 | 13.89° C | 52% | 989.2 hPa | - | 3.13 m/s, 176° | - | - |
| 1777790179 | 13.33° C | 53% | 989.2 hPa | - | 2.68 m/s, 193° | - | - |
| 1777789664 | 13.33° C | 53% | 989.2 hPa | - | 4.47 m/s, 175° | - | - |
| 1777789184 | 13.33° C | 54% | 989.4 hPa | - | 3.13 m/s, 186° | - | - |
| 1777788684 | 13.33° C | 53% | 989.3 hPa | - | 2.68 m/s, 189° | - | - |
| 1777788174 | 13.33° C | 53% | 989.3 hPa | - | 1.34 m/s, 160° | - | - |
| 1777787694 | 13.33° C | 54% | 989.4 hPa | - | 1.34 m/s, 210° | - | - |
| 1777787214 | 12.78° C | 55% | 989.4 hPa | - | 0.89 m/s, 189° | - | - |
| 1777786619 | 12.22° C | 55% | 989.4 hPa | - | 1.79 m/s, 176° | - | - |
| 1777786064 | 12.22° C | 56% | 989.4 hPa | - | 0.45 m/s, 215° | - | - |
| 1777785479 | 12.22° C | 57% | 989.5 hPa | - | 0.45 m/s, 205° | - | - |
| 1777784989 | 11.67° C | 57% | 989.5 hPa | - | 0.45 m/s, 250° | - | - |
| 1777784441 | 11.67° C | 57% | 989.5 hPa | - | 0.45 m/s, 233° | - | - |
* Rain since midnight (hover to see other rain measurements)
** Current wind speed in m/s (hover to see current wind gust speed)